Showing default

SKYSAT C1, 41601

Orbit data source: Space-Track

SKYSAT C1, 41601 is a payload satellite owned by Terra Bella (US) in SSO that was launched on Wed, 22 Jun 2016 UTC via a PSLV-XL launch vehicle from the Sirharikota (SRI). Payload-class satellites include a variety of spacecraft equipped with specific instruments for various scientific and technological missions. These include communications satellites like Starlink; space stations such as the ISS; scientific satellites like the Hubble; Earth observation satellites from companies like Planet Labs, Umbra, and HawkEye 360; GPS; miniature CubeSats for education and research; and military/defense satellites.

Loading next visibility...
Identifier
41601, 2016-040C
Orbit
SSO
Country
Flag of USUS
Related business
Manufacturer
SS/Loral (MDA)
Mission
Operational Commercial Imaging
Bus & Motor
SKYSAT-GEN2, Unknown motor
Mass
110 kg wet, 110 kg dry
Launch date (UTC)
2016-06-22 (9 years ago)
Launch vehicle
PSLV-XL
Launch site
Sirharikota (SRI)
Object type
Payload
Rocket body
Debris
Shape & HBR
Box, 1.0 m
Radar Cross Section
0.888 m², Medium (>0.1 m² and < 1m²)

Expand to show TLE details & history
Last TLE update: 19 hours ago

TLE from 19 hours ago
0 SKYSAT C1
1 41601U 16040C   25287.86386800  .00010217  00000-0  34252-3 0  9996
2 41601  96.9929 328.2283 0003355 148.1818 211.9627 15.31075844520264
Epoch: 2025-10-14T20:43Z
TLE epoch observation values (Epoch: 2025-10-14T20:43:58.195Z)
Latitude
-0.00006°
Longitude
-6.41036°
Altitude
477.669 km
Speed
7.626 km/s
True Right ascension
21h 52m 54s
True Declination
0° 00' 00"
Sunlit
Object was in full shadow at epoch
Visualization orbit readout
Latitude
Unknown
Longitude
Unknown
Altitude
Unknown
Speed
Unknown
Apparent Right ascension
Unknown
Apparent Declination
Unknown
Sunlit
N/A
Visualization observer readout
Local Sidereal Time
10:30:43
Azimuth
Unknown
Elevation
Unknown
Doppler factor
Unknown
Orbital elements
Apogee altitude
471.832 km
Perigee altitude
467.238 km
Semi-major axis
6,847.672 km
Eccentricity
0.00034
Inclination
96.9929°
RAAN
328.2283°
Arg. of periapsis
148.1818°
True anomaly
211.94236°
Mean anomaly
211.9627°
Eccentric anomaly
211.95253°
Mean motion
3.83026 °/min
Orbital period
93.99 mins
BSTAR
0.00034252
Loading maneuver chart data...
Computing Atmospheric mass density...
Loading historical data...
Loading historical data...
Loading historical data...
Loading historical data...
Loading historical data...
Loading historical data...
Loading historical data...

Documentation

Showing up to 5 results
|